Location: Windsor
(43.2292°N, 89.3015°W)
Time: 10:37:39
(UTC+00:00)

BEESAT - Pass Details

Date: 06 July 2022
Orbit: 700 x 706 km, 98.6° (Epoch: 13 August)

Event Time Altitude Azimuth Distance (km) Brightness Sun altitude
Rises 04:05:13 0° 353° (N) 3,106 ? -18.8°
Reaches altitude 10° 04:08:57 10° 323° (NW) 2,183 ? -19.1°
Maximum altitude 04:10:39 12° 302° (WNW) 2,055 ? -19.3°
Drops below altitude 10° 04:12:22 10° 281° (W) 2,179 ? -19.4°
Sets 04:16:05 0° 250° (WSW) 3,093 ? -19.7°
